| time (UTC) | temp C | wind direction | speed KPH | gust KPH | rain 1hr cm | rain 24hr cm | rain mn cm | humidity % | barometer mb |
| 20260503203526 | 22 | 328 | 4.8 | 14.5 | 0.00 | 0.00 | 0.00 | 28 | 1011.5 |
| 20260503203039 | 22 | 0 | 4.8 | 16.1 | 0.00 | 0.00 | 0.00 | 26 | 1011.5 |
| 20260503202528 | 22 | 254 | 6.4 | 16.1 | 0.00 | 0.00 | 0.00 | 27 | 1011.6 |
| 20260503202026 | 22 | 344 | 3.2 | 11.3 | 0.00 | 0.00 | 0.00 | 29 | 1011.7 |
| 20260503201544 | 22 | 327 | 3.2 | 16.1 | 0.00 | 0.00 | 0.00 | 27 | 1011.8 |
| 20260503201023 | 22 | 342 | 3.2 | 16.1 | 0.00 | 0.00 | 0.00 | 27 | 1011.7 |
| 20260503200522 | 22 | 347 | 8.0 | 19.3 | 0.00 | 0.00 | 0.00 | 28 | 1011.9 |
| 20260503200038 | 22 | 314 | 6.4 | 19.3 | 0.00 | 0.00 | 0.00 | 28 | 1011.9 |
| 20260503195522 | 21 | 341 | 9.7 | 19.3 | 0.00 | 0.00 | 0.00 | 29 | 1011.9 |
| 20260503195023 | 21 | 341 | 4.8 | 19.3 | 0.00 | 0.00 | 0.00 | 28 | 1011.9 |
| 20260503194545 | 21 | 331 | 8.0 | 17.7 | 0.00 | 0.00 | 0.00 | 30 | 1011.9 |
| 20260503194022 | 21 | 354 | 6.4 | 16.1 | 0.00 | 0.00 | 0.00 | 31 | 1012.1 |
| 20260503193524 | 21 | 63 | 9.7 | 30.6 | 0.00 | 0.00 | 0.00 | 27 | 1012.2 |
| 20260503193044 | 21 | 13 | 6.4 | 30.6 | 0.00 | 0.00 | 0.00 | 29 | 1012.2 |
| 20260503192525 | 21 | 166 | 6.4 | 17.7 | 0.00 | 0.00 | 0.00 | 32 | 1012.4 |
| 20260503192029 | 21 | 232 | 4.8 | 16.1 | 0.00 | 0.00 | 0.00 | 32 | 1012.4 |
| 20260503191539 | 21 | 349 | 4.8 | 16.1 | 0.00 | 0.00 | 0.00 | 34 | 1012.6 |
| 20260503191026 | 20 | 30 | 8.0 | 16.1 | 0.00 | 0.00 | 0.00 | 31 | 1012.5 |
| 20260503190525 | 20 | 66 | 1.6 | 9.7 | 0.00 | 0.00 | 0.00 | 34 | 1012.8 |
| 20260503190043 | 20 | 325 | 3.2 | 9.7 | 0.00 | 0.00 | 0.00 | 36 | 1013.0 |
| 20260503185525 | 20 | 143 | 3.2 | 8.0 | 0.00 | 0.00 | 0.00 | 33 | 1012.9 |
| 20260503185029 | 20 | 154 | 3.2 | 9.7 | 0.00 | 0.00 | 0.00 | 40 | 1013.1 |
| 20260503184542 | 19 | 336 | 1.6 | 9.7 | 0.00 | 0.00 | 0.00 | 36 | 1013.1 |
| 20260503184026 | 19 | 96 | 4.8 | 11.3 | 0.00 | 0.00 | 0.00 | 36 | 1013.2 |
| 20260503183527 | 19 | 22 | 3.2 | 12.9 | 0.00 | 0.00 | 0.00 | 38 | 1013.4 |
| 20260503183043 | 19 | 43 | 3.2 | 16.1 | 0.00 | 0.00 | 0.00 | 37 | 1013.4 |
| 20260503182526 | 19 | 95 | 6.4 | 16.1 | 0.00 | 0.00 | 0.00 | 39 | 1013.5 |
| 20260503182025 | 19 | 51 | 4.8 | 16.1 | 0.00 | 0.00 | 0.00 | 37 | 1013.6 |
| 20260503181556 | 19 | 113 | 6.4 | 12.9 | 0.00 | 0.00 | 0.00 | 36 | 1013.6 |
| 20260503181026 | 19 | 61 | 4.8 | 12.9 | 0.00 | 0.00 | 0.00 | 36 | 1013.7 |
| 20260503180530 | 19 | 0 | 1.6 | 9.7 | 0.00 | 0.00 | 0.00 | 37 | 1013.8 |
| 20260503180047 | 18 | 179 | 3.2 | 11.3 | 0.00 | 0.00 | 0.00 | 37 | 1013.9 |
| 20260503175529 | 18 | 0 | 3.2 | 12.9 | 0.00 | 0.00 | 0.00 | 38 | 1013.9 |
| 20260503175031 | 18 | 82 | 6.4 | 12.9 | 0.00 | 0.00 | 0.00 | 38 | 1014.0 |
| 20260503174538 | 18 | 254 | 4.8 | 11.3 | 0.00 | 0.00 | 0.00 | 37 | 1014.2 |
| 20260503174030 | 18 | 94 | 4.8 | 11.3 | 0.00 | 0.00 | 0.00 | 37 | 1014.1 |
| 20260503173526 | 18 | 27 | 3.2 | 11.3 | 0.00 | 0.00 | 0.00 | 38 | 1014.3 |
| 20260503173042 | 18 | 139 | 1.6 | 8.0 | 0.00 | 0.00 | 0.00 | 42 | 1014.2 |
| 20260503172526 | 18 | 16 | 1.6 | 8.0 | 0.00 | 0.00 | 0.00 | 40 | 1014.3 |
| 20260503172026 | 18 | 82 | 4.8 | 8.0 | 0.00 | 0.00 | 0.00 | 40 | 1014.4 |
| 20260503171539 | 18 | 319 | 3.2 | 11.3 | 0.00 | 0.00 | 0.00 | 45 | 1014.5 |
| 20260503171025 | 17 | 0 | 3.2 | 11.3 | 0.00 | 0.00 | 0.00 | 43 | 1014.5 |
| 20260503170527 | 17 | 12 | 4.8 | 8.0 | 0.00 | 0.00 | 0.00 | 46 | 1014.5 |
| 20260503150525 | 13 | 51 | 1.6 | 6.4 | 0.00 | 0.00 | 0.00 | 56 | 1015.6 |
| 20260503131025 | 8 | 212 | 1.6 | 6.4 | 0.00 | 0.00 | 0.00 | 69 | 1015.6 |
| 20260503130529 | 8 | 0 | 0.0 | 3.2 | 0.00 | 0.00 | 0.00 | 70 | 1015.7 |
| 20260503110526 | 7 | 0 | 0.0 | 3.2 | 0.00 | 0.00 | 0.00 | 70 | 1015.0 |
| 20260503081536 | 8 | 188 | 1.6 | 6.4 | 0.00 | 0.00 | 0.00 | 63 | 1014.9 |
| 20260503081023 | 8 | 131 | 1.6 | 4.8 | 0.00 | 0.00 | 0.00 | 63 | 1014.9 |
| 20260503080524 | 8 | 181 | 1.6 | 4.8 | 0.00 | 0.00 | 0.00 | 64 | 1015.0 |
| 20260503072524 | 10 | 226 | 0.0 | 6.4 | 0.00 | 0.00 | 0.00 | 62 | 1015.1 |
| 20260503072027 | 10 | 209 | 3.2 | 6.4 | 0.00 | 0.00 | 0.00 | 61 | 1015.1 |
| 20260503071537 | 10 | 232 | 1.6 | 4.8 | 0.00 | 0.00 | 0.00 | 61 | 1015.2 |
| 20260503071027 | 10 | 230 | 0.0 | 4.8 | 0.00 | 0.00 | 0.00 | 61 | 1015.1 |
| 20260503070530 | 10 | 245 | 0.0 | 4.8 | 0.00 | 0.00 | 0.00 | 62 | 1015.0 |
| 20260503055023 | 11 | 0 | 0.0 | 0.0 | 0.00 | 0.00 | 0.00 | 55 | 1014.9 |
| 20260503054543 | 11 | 0 | 0.0 | 0.0 | 0.00 | 0.00 | 0.00 | 56 | 1014.9 |
| 20260503054027 | 11 | 0 | 0.0 | 3.2 | 0.00 | 0.00 | 0.00 | 55 | 1014.9 |
| 20260503053527 | 11 | 0 | 0.0 | 4.8 | 0.00 | 0.00 | 0.00 | 54 | 1014.9 |
| 20260503053037 | 12 | 0 | 0.0 | 4.8 | 0.00 | 0.00 | 0.00 | 52 | 1014.9 |
| 20260503052526 | 12 | 253 | 1.6 | 4.8 | 0.00 | 0.00 | 0.00 | 51 | 1015.0 |
| 20260503052028 | 12 | 0 | 1.6 | 6.4 | 0.00 | 0.00 | 0.00 | 51 | 1015.1 |
| 20260503051537 | 12 | 262 | 0.0 | 6.4 | 0.00 | 0.00 | 0.00 | 51 | 1015.0 |
| 20260503051027 | 12 | 262 | 1.6 | 6.4 | 0.00 | 0.00 | 0.00 | 51 | 1014.9 |
| 20260503050523 | 12 | 0 | 0.0 | 6.4 | 0.00 | 0.00 | 0.00 | 51 | 1014.9 |
| 20260503050038 | 12 | 245 | 1.6 | 6.4 | 0.00 | 0.00 | 0.00 | 51 | 1014.9 |
| 20260503045526 | 12 | 259 | 1.6 | 4.8 | 0.00 | 0.00 | 0.00 | 51 | 1014.8 |
| 20260503045027 | 13 | 0 | 0.0 | 4.8 | 0.00 | 0.00 | 0.00 | 51 | 1014.7 |
| 20260503044552 | 13 | 0 | 0.0 | 4.8 | 0.00 | 0.00 | 0.00 | 51 | 1014.7 |
| 20260503044027 | 13 | 359 | 1.6 | 4.8 | 0.00 | 0.00 | 0.00 | 51 | 1014.7 |
| 20260503043527 | 13 | 13 | 1.6 | 4.8 | 0.00 | 0.00 | 0.00 | 50 | 1014.8 |
| 20260503043043 | 13 | 22 | 0.0 | 4.8 | 0.00 | 0.00 | 0.00 | 49 | 1014.9 |
| 20260503042526 | 13 | 0 | 1.6 | 4.8 | 0.00 | 0.00 | 0.00 | 48 | 1014.8 |
| 20260503042025 | 13 | 23 | 1.6 | 4.8 | 0.00 | 0.00 | 0.00 | 48 | 1014.8 |
| 20260503041537 | 13 | 0 | 1.6 | 6.4 | 0.00 | 0.00 | 0.00 | 47 | 1014.8 |
| 20260503041024 | 13 | 0 | 1.6 | 6.4 | 0.00 | 0.00 | 0.00 | 47 | 1014.8 |
| 20260503040525 | 13 | 49 | 3.2 | 6.4 | 0.00 | 0.00 | 0.00 | 47 | 1014.8 |
| 20260503040049 | 13 | 22 | 1.6 | 6.4 | 0.00 | 0.00 | 0.00 | 47 | 1014.7 |
| 20260503035525 | 13 | 17 | 1.6 | 6.4 | 0.00 | 0.00 | 0.00 | 46 | 1014.7 |
| 20260503035025 | 13 | 15 | 3.2 | 6.4 | 0.00 | 0.00 | 0.00 | 46 | 1014.6 |
| 20260503034539 | 13 | 21 | 0.0 | 6.4 | 0.00 | 0.00 | 0.00 | 46 | 1014.6 |
| 20260503034028 | 13 | 70 | 3.2 | 6.4 | 0.00 | 0.00 | 0.00 | 45 | 1014.4 |
| 20260503033526 | 14 | 103 | 1.6 | 4.8 | 0.00 | 0.00 | 0.00 | 44 | 1014.4 |
| 20260503033042 | 15 | 61 | 0.0 | 4.8 | 0.00 | 0.00 | 0.00 | 44 | 1014.5 |
| 20260503032525 | 15 | 60 | 1.6 | 11.3 | 0.00 | 0.00 | 0.00 | 42 | 1014.6 |
| 20260503032025 | 15 | 63 | 4.8 | 11.3 | 0.00 | 0.00 | 0.00 | 41 | 1014.5 |
| 20260503031536 | 15 | 63 | 3.2 | 12.9 | 0.00 | 0.00 | 0.00 | 41 | 1014.5 |
| 20260503031025 | 15 | 53 | 3.2 | 16.1 | 0.00 | 0.00 | 0.00 | 41 | 1014.3 |
| 20260503030525 | 16 | 18 | 8.0 | 16.1 | 0.00 | 0.00 | 0.00 | 40 | 1014.2 |
| 20260503030040 | 15 | 50 | 6.4 | 16.1 | 0.00 | 0.00 | 0.00 | 40 | 1014.2 |
| 20260503025525 | 16 | 29 | 8.0 | 17.7 | 0.00 | 0.00 | 0.00 | 39 | 1014.2 |
| 20260503025025 | 16 | 54 | 9.7 | 17.7 | 0.00 | 0.00 | 0.00 | 39 | 1014.0 |
| 20260503024540 | 16 | 54 | 11.3 | 20.9 | 0.00 | 0.00 | 0.00 | 39 | 1014.0 |
| 20260503024025 | 16 | 53 | 8.0 | 20.9 | 0.00 | 0.00 | 0.00 | 39 | 1014.0 |
| 20260503023525 | 16 | 1 | 8.0 | 17.7 | 0.00 | 0.00 | 0.00 | 40 | 1014.0 |
| 20260503023036 | 16 | 7 | 8.0 | 17.7 | 0.00 | 0.00 | 0.00 | 39 | 1014.0 |
| 20260503022524 | 16 | 13 | 6.4 | 22.5 | 0.00 | 0.00 | 0.00 | 39 | 1013.7 |
| 20260503022028 | 16 | 69 | 8.0 | 22.5 | 0.00 | 0.00 | 0.00 | 38 | 1013.6 |
| 20260503021538 | 16 | 35 | 9.7 | 20.9 | 0.00 | 0.00 | 0.00 | 38 | 1013.5 |
| 20260503021025 | 16 | 22 | 6.4 | 20.9 | 0.00 | 0.00 | 0.00 | 38 | 1013.5 |
| 20260503020523 | 17 | 30 | 6.4 | 14.5 | 0.00 | 0.00 | 0.00 | 38 | 1013.5 |
| 20260503020036 | 17 | 31 | 4.8 | 14.5 | 0.00 | 0.00 | 0.00 | 38 | 1013.4 |
| 20260503015528 | 17 | 101 | 8.0 | 16.1 | 0.00 | 0.00 | 0.00 | 37 | 1013.6 |
| 20260503015025 | 17 | 54 | 9.7 | 16.1 | 0.00 | 0.00 | 0.00 | 37 | 1013.5 |
| 20260503014539 | 17 | 12 | 6.4 | 19.3 | 0.00 | 0.00 | 0.00 | 37 | 1013.3 |
| 20260503014025 | 17 | 32 | 8.0 | 19.3 | 0.00 | 0.00 | 0.00 | 37 | 1013.3 |
| 20260503013525 | 17 | 30 | 9.7 | 19.3 | 0.00 | 0.00 | 0.00 | 36 | 1013.3 |
| 20260503013038 | 18 | 28 | 8.0 | 19.3 | 0.00 | 0.00 | 0.00 | 36 | 1013.2 |
| 20260503012525 | 18 | 18 | 8.0 | 19.3 | 0.00 | 0.00 | 0.00 | 36 | 1013.3 |
| 20260503012026 | 18 | 56 | 8.0 | 17.7 | 0.00 | 0.00 | 0.00 | 35 | 1013.3 |
| 20260503011537 | 18 | 13 | 9.7 | 24.1 | 0.00 | 0.00 | 0.00 | 34 | 1013.1 |
| 20260503011025 | 19 | 53 | 8.0 | 24.1 | 0.00 | 0.00 | 0.00 | 34 | 1013.3 |
| 20260503010526 | 19 | 42 | 11.3 | 24.1 | 0.00 | 0.00 | 0.00 | 33 | 1013.1 |
| 20260503010037 | 20 | 17 | 12.9 | 22.5 | 0.00 | 0.00 | 0.00 | 32 | 1013.1 |
| 20260503005527 | 20 | 48 | 11.3 | 24.1 | 0.00 | 0.00 | 0.00 | 32 | 1013.2 |
| 20260503005024 | 20 | 42 | 12.9 | 24.1 | 0.00 | 0.00 | 0.00 | 32 | 1013.1 |
| 20260503004536 | 20 | 51 | 11.3 | 24.1 | 0.00 | 0.00 | 0.00 | 31 | 1013.2 |
| 20260503004030 | 20 | 39 | 12.9 | 24.1 | 0.00 | 0.00 | 0.00 | 31 | 1013.2 |
| 20260503003526 | 20 | 27 | 11.3 | 29.0 | 0.00 | 0.00 | 0.00 | 31 | 1013.1 |
| 20260503003040 | 20 | 61 | 11.3 | 29.0 | 0.00 | 0.00 | 0.00 | 31 | 1013.3 |
| 20260503002530 | 20 | 52 | 14.5 | 29.0 | 0.00 | 0.00 | 0.00 | 30 | 1013.2 |
| 20260503002029 | 20 | 23 | 14.5 | 24.1 | 0.00 | 0.00 | 0.00 | 31 | 1013.3 |
| 20260503001543 | 21 | 35 | 12.9 | 24.1 | 0.00 | 0.00 | 0.00 | 30 | 1013.2 |
| 20260503001025 | 21 | 112 | 12.9 | 24.1 | 0.00 | 0.00 | 0.00 | 29 | 1013.3 |
| 20260503000525 | 21 | 34 | 12.9 | 24.1 | 0.00 | 0.00 | 0.00 | 28 | 1013.3 |
| 20260503000036 | 22 | 30 | 12.9 | 22.5 | 0.00 | 0.00 | 0.00 | 26 | 1013.3 |
| 20260502235525 | 23 | 1 | 3.2 | 8.0 | 0.00 | 0.00 | 0.00 | 19 | 1013.2 |
| 20260502235025 | 22 | 0 | 1.6 | 6.4 | 0.00 | 0.00 | 0.00 | 19 | 1013.3 |
| 20260502234546 | 22 | 108 | 1.6 | 8.0 | 0.00 | 0.00 | 0.00 | 18 | 1013.3 |
| 20260502234027 | 22 | 93 | 3.2 | 8.0 | 0.00 | 0.00 | 0.00 | 18 | 1013.3 |
| 20260502233530 | 22 | 98 | 3.2 | 8.0 | 0.00 | 0.00 | 0.00 | 18 | 1013.3 |
| 20260502233037 | 22 | 0 | 3.2 | 6.4 | 0.00 | 0.00 | 0.00 | 18 | 1013.4 |
| 20260502232528 | 22 | 28 | 0.0 | 6.4 | 0.00 | 0.00 | 0.00 | 19 | 1013.5 |
| 20260502232026 | 22 | 0 | 1.6 | 6.4 | 0.00 | 0.00 | 0.00 | 18 | 1013.5 |
| 20260502231541 | 22 | 333 | 1.6 | 12.9 | 0.00 | 0.00 | 0.00 | 20 | 1013.6 |
| 20260502231030 | 22 | 347 | 3.2 | 12.9 | 0.00 | 0.00 | 0.00 | 19 | 1013.6 |
| 20260502230526 | 23 | 347 | 3.2 | 9.7 | 0.00 | 0.00 | 0.00 | 19 | 1013.5 |
| 20260502230043 | 23 | 0 | 1.6 | 8.0 | 0.00 | 0.00 | 0.00 | 18 | 1013.6 |
| 20260502225527 | 23 | 74 | 4.8 | 8.0 | 0.00 | 0.00 | 0.00 | 17 | 1013.7 |
| 20260502225027 | 23 | 131 | 1.6 | 11.3 | 0.00 | 0.00 | 0.00 | 18 | 1013.8 |
| 20260502224539 | 22 | 181 | 6.4 | 11.3 | 0.00 | 0.00 | 0.00 | 18 | 1013.8 |
| 20260502224026 | 23 | 88 | 6.4 | 12.9 | 0.00 | 0.00 | 0.00 | 18 | 1013.8 |
| 20260502223526 | 23 | 99 | 4.8 | 12.9 | 0.00 | 0.00 | 0.00 | 18 | 1013.9 |
| 20260502223037 | 23 | 96 | 4.8 | 12.9 | 0.00 | 0.00 | 0.00 | 18 | 1014.0 |
| 20260502222526 | 23 | 140 | 4.8 | 12.9 | 0.00 | 0.00 | 0.00 | 21 | 1014.0 |
| 20260502222028 | 23 | 250 | 6.4 | 11.3 | 0.00 | 0.00 | 0.00 | 18 | 1014.1 |
| 20260502221540 | 23 | 221 | 4.8 | 11.3 | 0.00 | 0.00 | 0.00 | 20 | 1014.1 |
| 20260502221023 | 23 | 203 | 4.8 | 9.7 | 0.00 | 0.00 | 0.00 | 18 | 1014.2 |
| 20260502220526 | 23 | 0 | 3.2 | 12.9 | 0.00 | 0.00 | 0.00 | 21 | 1014.3 |
| 20260502220051 | 23 | 0 | 4.8 | 12.9 | 0.00 | 0.00 | 0.00 | 19 | 1014.5 |
| 20260502215525 | 22 | 198 | 3.2 | 12.9 | 0.00 | 0.00 | 0.00 | 18 | 1014.5 |
| 20260502215024 | 22 | 120 | 3.2 | 11.3 | 0.00 | 0.00 | 0.00 | 18 | 1014.6 |
| 20260502214541 | 22 | 58 | 4.8 | 12.9 | 0.00 | 0.00 | 0.00 | 18 | 1014.7 |
| 20260502214026 | 22 | 341 | 3.2 | 16.1 | 0.00 | 0.00 | 0.00 | 21 | 1014.7 |
| 20260502213526 | 22 | 44 | 8.0 | 16.1 | 0.00 | 0.00 | 0.00 | 18 | 1014.8 |
| 20260502213039 | 23 | 74 | 4.8 | 12.9 | 0.00 | 0.00 | 0.00 | 18 | 1014.8 |
| 20260502212528 | 23 | 339 | 1.6 | 8.0 | 0.00 | 0.00 | 0.00 | 17 | 1015.0 |
| 20260502212027 | 22 | 18 | 3.2 | 11.3 | 0.00 | 0.00 | 0.00 | 17 | 1015.1 |
| 20260502211540 | 22 | 288 | 1.6 | 11.3 | 0.00 | 0.00 | 0.00 | 18 | 1015.1 |
| 20260502211023 | 22 | 41 | 4.8 | 11.3 | 0.00 | 0.00 | 0.00 | 18 | 1015.4 |
| 20260502210526 | 22 | 53 | 8.0 | 14.5 | 0.00 | 0.00 | 0.00 | 18 | 1015.4 |
| 20260502210041 | 23 | 340 | 4.8 | 14.5 | 0.00 | 0.00 | 0.00 | 19 | 1015.4 |
| 20260502205526 | 23 | 55 | 6.4 | 11.3 | 0.00 | 0.00 | 0.00 | 20 | 1015.4 |
| 20260502205028 | 23 | 321 | 4.8 | 11.3 | 0.00 | 0.00 | 0.00 | 20 | 1015.5 |
| 20260502204537 | 22 | 266 | 4.8 | 16.1 | 0.00 | 0.00 | 0.00 | 18 | 1015.5 |
| 20260502204027 | 22 | 227 | 6.4 | 16.1 | 0.00 | 0.00 | 0.00 | 18 | 1015.7 |